Saint Bonnet de Bellac- Haute Vienne - France
Donnes mto: lundi, 16/07/2012
Date Horaire Temp. E. Hum. E. P.atmo. Pluie Vent Direction Direction Ensoleilleme Solaire P. de rose Temp au vent Rafales
16/07/2012 00:00 12,4 C 81 % 1025,2 hPa 0,0 mm 0,0 km/h (0 Bft) O-SO 247 0 min 0 W/m 9,2 C 12,4 C 0,0 km/h (0 Bft)
16/07/2012 00:10 12,3 C 81 % 1025,3 hPa 0,0 mm 1,8 km/h (1 Bft) S-SO 202 0 min 0 W/m 9,1 C 12,3 C 1,8 km/h (1 Bft)
16/07/2012 00:20 12,1 C 82 % 1025,4 hPa 0,0 mm 3,2 km/h (1 Bft) S-SO 202 0 min 0 W/m 9,1 C 12,1 C 4,3 km/h (1 Bft)
16/07/2012 00:30 11,8 C 83 % 1025,5 hPa 0,0 mm 0,4 km/h (0 Bft) S-SO 202 0 min 0 W/m 9,0 C 11,8 C 3,2 km/h (1 Bft)
16/07/2012 00:40 11,6 C 83 % 1025,6 hPa 0,0 mm 0,7 km/h (0 Bft) S-SO 202 0 min 0 W/m 8,8 C 11,6 C 3,6 km/h (1 Bft)
16/07/2012 00:50 11,4 C 84 % 1025,7 hPa 0,0 mm 0,0 km/h (0 Bft) S-SO 202 0 min 0 W/m 8,8 C 11,4 C 0,0 km/h (0 Bft)
16/07/2012 01:00 11,1 C 84 % 1025,7 hPa 0,0 mm 1,4 km/h (1 Bft) S-SO 202 0 min 0 W/m 8,5 C 11,1 C 4,0 km/h (1 Bft)
16/07/2012 01:10 10,9 C 85 % 1025,9 hPa 0,0 mm 0,4 km/h (0 Bft) O-SO 247 0 min 0 W/m 8,5 C 10,9 C 3,6 km/h (1 Bft)
16/07/2012 01:20 10,9 C 86 % 1026,0 hPa 0,0 mm 0,0 km/h (0 Bft) SO 225 0 min 0 W/m 8,7 C 10,9 C 0,0 km/h (0 Bft)
16/07/2012 01:30 10,8 C 86 % 1026,0 hPa 0,0 mm 1,1 km/h (1 Bft) SO 225 0 min 0 W/m 8,6 C 10,8 C 3,6 km/h (1 Bft)
16/07/2012 01:40 10,6 C 87 % 1026,0 hPa 0,0 mm 0,0 km/h (0 Bft) S-SO 202 0 min 0 W/m 8,5 C 10,6 C 3,2 km/h (1 Bft)
16/07/2012 01:50 10,5 C 87 % 1026,2 hPa 0,0 mm 0,0 km/h (0 Bft) S-SO 202 0 min 0 W/m 8,4 C 10,5 C 0,0 km/h (0 Bft)
16/07/2012 02:00 10,3 C 87 % 1026,3 hPa 0,0 mm 1,4 km/h (1 Bft) S-SO 202 0 min 0 W/m 8,2 C 10,3 C 1,4 km/h (1 Bft)
16/07/2012 02:10 10,3 C 87 % 1026,3 hPa 0,0 mm 1,4 km/h (1 Bft) SO 225 0 min 0 W/m 8,2 C 10,3 C 3,2 km/h (1 Bft)
16/07/2012 02:20 10,3 C 88 % 1026,3 hPa 0,0 mm 0,0 km/h (0 Bft) SO 225 0 min 0 W/m 8,4 C 10,3 C 0,0 km/h (0 Bft)
16/07/2012 02:30 10,2 C 88 % 1026,3 hPa 0,0 mm 0,0 km/h (0 Bft) S-SO 202 0 min 0 W/m 8,3 C 10,2 C 0,0 km/h (0 Bft)
16/07/2012 02:40 10,1 C 88 % 1026,2 hPa 0,0 mm 0,0 km/h (0 Bft) SO 225 0 min 0 W/m 8,2 C 10,1 C 0,0 km/h (0 Bft)
16/07/2012 02:50 9,9 C 88 % 1026,2 hPa 0,0 mm 1,4 km/h (1 Bft) S-SO 202 0 min 0 W/m 8,0 C 9,9 C 3,2 km/h (1 Bft)
16/07/2012 03:02 9,8 C 89 % 1026,1 hPa 0,0 mm 0,0 km/h (0 Bft) SO 225 0 min 0 W/m 8,1 C 9,8 C 0,0 km/h (0 Bft)
16/07/2012 03:10 9,7 C 89 % 1026,3 hPa 0,0 mm 0,0 km/h (0 Bft) SO 225 0 min 0 W/m 8,0 C 9,7 C 0,0 km/h (0 Bft)
16/07/2012 03:20 9,4 C 88 % 1026,3 hPa 0,0 mm 0,0 km/h (0 Bft) SO 225 0 min 0 W/m 7,5 C 9,4 C 0,0 km/h (0 Bft)
16/07/2012 03:30 9,3 C 89 % 1026,3 hPa 0,0 mm 0,0 km/h (0 Bft) SO 225 0 min 0 W/m 7,6 C 9,3 C 0,0 km/h (0 Bft)
16/07/2012 03:40 9,3 C 89 % 1026,3 hPa 0,0 mm 0,0 km/h (0 Bft) S-SO 202 0 min 0 W/m 7,6 C 9,3 C 0,0 km/h (0 Bft)
16/07/2012 03:50 9,2 C 89 % 1026,3 hPa 0,0 mm 0,0 km/h (0 Bft) SO 225 0 min 0 W/m 7,5 C 9,2 C 0,0 km/h (0 Bft)
16/07/2012 04:00 9,1 C 89 % 1026,2 hPa 0,0 mm 0,0 km/h (0 Bft) S-SO 202 0 min 0 W/m 7,4 C 9,1 C 0,0 km/h (0 Bft)
16/07/2012 04:10 9,1 C 89 % 1026,4 hPa 0,0 mm 0,0 km/h (0 Bft) S-SO 202 0 min 0 W/m 7,4 C 9,1 C 0,0 km/h (0 Bft)
16/07/2012 04:20 8,9 C 90 % 1026,4 hPa 0,0 mm 0,0 km/h (0 Bft) O-SO 247 0 min 0 W/m 7,4 C 8,9 C 0,0 km/h (0 Bft)
16/07/2012 04:30 8,9 C 90 % 1026,4 hPa 0,0 mm 0,0 km/h (0 Bft) S-SO 202 0 min 0 W/m 7,4 C 8,9 C 0,0 km/h (0 Bft)
16/07/2012 04:40 8,8 C 90 % 1026,5 hPa 0,0 mm 0,0 km/h (0 Bft) S-SO 202 0 min 0 W/m 7,3 C 8,8 C 0,0 km/h (0 Bft)
16/07/2012 04:50 8,7 C 90 % 1026,5 hPa 0,0 mm 0,0 km/h (0 Bft) SO 225 0 min 0 W/m 7,2 C 8,7 C 0,0 km/h (0 Bft)
16/07/2012 05:00 8,7 C 90 % 1026,6 hPa 0,0 mm 0,0 km/h (0 Bft) S-SO 202 0 min 0 W/m 7,2 C 8,7 C 0,0 km/h (0 Bft)
16/07/2012 05:10 8,6 C 91 % 1026,7 hPa 0,0 mm 0,0 km/h (0 Bft) S-SO 202 0 min 0 W/m 7,2 C 8,6 C 0,0 km/h (0 Bft)
16/07/2012 05:20 8,6 C 91 % 1026,7 hPa 0,0 mm 0,0 km/h (0 Bft) S-SO 202 0 min 0 W/m 7,2 C 8,6 C 0,0 km/h (0 Bft)
16/07/2012 05:30 8,5 C 91 % 1026,8 hPa 0,0 mm 0,0 km/h (0 Bft) S-SO 202 0 min 0 W/m 7,1 C 8,5 C 0,0 km/h (0 Bft)
16/07/2012 05:40 8,4 C 91 % 1026,9 hPa 0,0 mm 0,0 km/h (0 Bft) S-SO 202 0 min 0 W/m 7,0 C 8,4 C 0,0 km/h (0 Bft)
16/07/2012 05:50 8,3 C 91 % 1026,9 hPa 0,0 mm 0,0 km/h (0 Bft) S-SO 202 0 min 0 W/m 6,9 C 8,3 C 0,0 km/h (0 Bft)
16/07/2012 06:00 8,2 C 91 % 1026,9 hPa 0,0 mm 0,0 km/h (0 Bft) S-SO 202 0 min 0 W/m 6,8 C 8,2 C 0,0 km/h (0 Bft)
16/07/2012 06:10 8,2 C 91 % 1026,8 hPa 0,0 mm 0,0 km/h (0 Bft) S-SO 202 0 min 0 W/m 6,8 C 8,2 C 0,0 km/h (0 Bft)
16/07/2012 06:20 8,1 C 91 % 1026,8 hPa 0,0 mm 0,0 km/h (0 Bft) S-SO 202 0 min 0 W/m 6,7 C 8,1 C 0,0 km/h (0 Bft)
16/07/2012 06:30 7,9 C 91 % 1026,8 hPa 0,0 mm 0,0 km/h (0 Bft) S-SO 202 0 min 0 W/m 6,5 C 7,9 C 0,0 km/h (0 Bft)
16/07/2012 06:40 7,8 C 91 % 1027,0 hPa 0,0 mm 0,0 km/h (0 Bft) S-SO 202 0 min 0 W/m 6,4 C 7,8 C 0,0 km/h (0 Bft)
16/07/2012 06:50 7,9 C 91 % 1027,0 hPa 0,0 mm 0,0 km/h (0 Bft) S 180 0 min 0 W/m 6,5 C 7,9 C 0,0 km/h (0 Bft)
16/07/2012 07:00 8,1 C 91 % 1027,1 hPa 0,0 mm 0,0 km/h (0 Bft) N 360 0 min 0 W/m 6,7 C 8,1 C 0,0 km/h (0 Bft)
16/07/2012 07:10 8,4 C 91 % 1027,1 hPa 0,0 mm 0,0 km/h (0 Bft) S-SE 157 0 min 0 W/m 7,0 C 8,4 C 0,0 km/h (0 Bft)
16/07/2012 07:20 8,8 C 91 % 1027,2 hPa 0,0 mm 0,0 km/h (0 Bft) S-SE 157 0 min 0 W/m 7,4 C 8,8 C 0,0 km/h (0 Bft)
16/07/2012 07:30 9,1 C 92 % 1027,3 hPa 0,0 mm 0,0 km/h (0 Bft) S-SE 157 0 min 0 W/m 7,9 C 9,1 C 0,0 km/h (0 Bft)
16/07/2012 07:40 9,5 C 92 % 1027,4 hPa 0,0 mm 0,0 km/h (0 Bft) S-SE 157 0 min 0 W/m 8,3 C 9,5 C 0,0 km/h (0 Bft)
16/07/2012 07:50 10,1 C 93 % 1027,3 hPa 0,0 mm 0,0 km/h (0 Bft) S-SE 157 0 min 0 W/m 9,0 C 10,1 C 0,0 km/h (0 Bft)
16/07/2012 08:00 10,6 C 93 % 1027,5 hPa 0,0 mm 0,0 km/h (0 Bft) S-SE 157 0 min 0 W/m 9,5 C 10,6 C 0,0 km/h (0 Bft)
16/07/2012 08:10 11,2 C 93 % 1027,6 hPa 0,0 mm 0,0 km/h (0 Bft) S-SE 157 0 min 0 W/m 10,1 C 11,2 C 0,0 km/h (0 Bft)
16/07/2012 08:20 11,8 C 93 % 1027,6 hPa 0,0 mm 0,4 km/h (0 Bft) S 180 0 min 0 W/m 10,7 C 11,8 C 3,6 km/h (1 Bft)
16/07/2012 08:30 12,5 C 92 % 1027,7 hPa 0,0 mm 0,4 km/h (0 Bft) O-SO 247 0 min 0 W/m 11,2 C 12,5 C 3,2 km/h (1 Bft)
16/07/2012 08:40 12,9 C 90 % 1027,8 hPa 0,0 mm 2,5 km/h (1 Bft) SO 225 0 min 0 W/m 11,3 C 12,9 C 4,3 km/h (1 Bft)
16/07/2012 08:50 13,6 C 88 % 1028,0 hPa 0,0 mm 0,4 km/h (0 Bft) SO 225 0 min 0 W/m 11,6 C 13,6 C 0,4 km/h (0 Bft)
16/07/2012 09:00 14,2 C 86 % 1028,0 hPa 0,0 mm 0,0 km/h (0 Bft) S 180 0 min 0 W/m 11,9 C 14,2 C 0,0 km/h (0 Bft)
16/07/2012 09:10 14,6 C 85 % 1028,0 hPa 0,0 mm 0,4 km/h (0 Bft) SO 225 0 min 0 W/m 12,1 C 14,6 C 3,2 km/h (1 Bft)
16/07/2012 09:20 15,1 C 84 % 1028,0 hPa 0,0 mm 0,0 km/h (0 Bft) S-SO 202 0 min 0 W/m 12,4 C 15,1 C 0,0 km/h (0 Bft)
16/07/2012 09:30 15,5 C 81 % 1028,1 hPa 0,0 mm 0,4 km/h (0 Bft) S-SO 202 0 min 0 W/m 12,3 C 15,5 C 4,0 km/h (1 Bft)
16/07/2012 09:40 15,9 C 80 % 1028,2 hPa 0,0 mm 2,5 km/h (1 Bft) SO 225 0 min 0 W/m 12,5 C 15,9 C 4,3 km/h (1 Bft)
16/07/2012 09:50 16,3 C 79 % 1028,4 hPa 0,0 mm 2,2 km/h (1 Bft) S-SO 202 0 min 0 W/m 12,6 C 16,3 C 6,8 km/h (2 Bft)
16/07/2012 10:00 16,8 C 77 % 1028,4 hPa 0,0 mm 1,4 km/h (1 Bft) S-SO 202 0 min 0 W/m 12,7 C 16,8 C 3,2 km/h (1 Bft)
16/07/2012 10:10 17,1 C 76 % 1028,3 hPa 0,0 mm 0,0 km/h (0 Bft) SO 225 0 min 0 W/m 12,8 C 17,1 C 0,0 km/h (0 Bft)
16/07/2012 10:20 17,4 C 73 % 1028,4 hPa 0,0 mm 4,0 km/h (1 Bft) S 180 0 min 0 W/m 12,5 C 17,4 C 8,3 km/h (2 Bft)
16/07/2012 10:30 17,8 C 70 % 1028,3 hPa 0,0 mm 3,6 km/h (1 Bft) S-SO 202 0 min 0 W/m 12,3 C 17,8 C 3,6 km/h (1 Bft)
16/07/2012 10:40 18,3 C 71 % 1028,3 hPa 0,0 mm 0,7 km/h (0 Bft) SO 225 0 min 0 W/m 12,9 C 18,3 C 3,6 km/h (1 Bft)
16/07/2012 10:50 18,8 C 69 % 1028,3 hPa 0,0 mm 0,4 km/h (0 Bft) O-SO 247 0 min 0 W/m 13,0 C 18,8 C 4,3 km/h (1 Bft)
16/07/2012 11:00 19,1 C 66 % 1028,3 hPa 0,0 mm 0,0 km/h (0 Bft) S-SO 202 0 min 0 W/m 12,6 C 19,1 C 0,0 km/h (0 Bft)
16/07/2012 11:10 19,4 C 66 % 1028,4 hPa 0,0 mm 0,0 km/h (0 Bft) O-SO 247 0 min 0 W/m 12,9 C 19,4 C 0,0 km/h (0 Bft)
16/07/2012 11:20 19,8 C 65 % 1028,5 hPa 0,0 mm 0,4 km/h (0 Bft) O 270 0 min 0 W/m 13,0 C 19,8 C 0,4 km/h (0 Bft)
16/07/2012 11:30 20,0 C 63 % 1028,6 hPa 0,0 mm 3,2 km/h (1 Bft) S-SO 202 0 min 0 W/m 12,7 C 20,0 C 6,1 km/h (2 Bft)
16/07/2012 11:40 20,2 C 64 % 1028,5 hPa 0,0 mm 1,8 km/h (1 Bft) S-SO 202 0 min 0 W/m 13,2 C 20,2 C 4,3 km/h (1 Bft)
16/07/2012 11:50 20,3 C 61 % 1028,5 hPa 0,0 mm 1,8 km/h (1 Bft) O-SO 247 0 min 0 W/m 12,5 C 20,3 C 3,6 km/h (1 Bft)
16/07/2012 12:00 20,2 C 62 % 1028,7 hPa 0,0 mm 0,0 km/h (0 Bft) SO 225 0 min 0 W/m 12,7 C 20,2 C 2,9 km/h (1 Bft)
16/07/2012 12:10 20,6 C 62 % 1028,7 hPa 0,0 mm 3,6 km/h (1 Bft) S-SO 202 0 min 0 W/m 13,1 C 20,6 C 8,3 km/h (2 Bft)
16/07/2012 12:20 20,8 C 61 % 1028,7 hPa 0,0 mm 6,8 km/h (2 Bft) S 180 0 min 0 W/m 13,0 C 20,8 C 10,8 km/h (2 Bft)
16/07/2012 12:30 20,9 C 59 % 1028,6 hPa 0,0 mm 1,8 km/h (1 Bft) SO 225 0 min 0 W/m 12,6 C 20,9 C 3,6 km/h (1 Bft)
16/07/2012 12:40 21,1 C 58 % 1028,8 hPa 0,0 mm 2,5 km/h (1 Bft) S-SO 202 0 min 0 W/m 12,5 C 21,1 C 4,3 km/h (1 Bft)
16/07/2012 12:50 21,2 C 59 % 1028,8 hPa 0,0 mm 4,3 km/h (1 Bft) SO 225 0 min 0 W/m 12,9 C 21,2 C 4,3 km/h (1 Bft)
16/07/2012 13:00 21,6 C 58 % 1028,8 hPa 0,0 mm 0,4 km/h (0 Bft) O 270 0 min 0 W/m 13,0 C 21,6 C 3,6 km/h (1 Bft)
16/07/2012 13:10 21,7 C 55 % 1028,9 hPa 0,0 mm 1,1 km/h (1 Bft) SO 225 0 min 0 W/m 12,3 C 21,7 C 1,1 km/h (1 Bft)
16/07/2012 13:20 21,4 C 56 % 1028,8 hPa 0,0 mm 3,6 km/h (1 Bft) O 270 0 min 0 W/m 12,3 C 21,4 C 8,3 km/h (2 Bft)
16/07/2012 13:30 21,5 C 55 % 1028,8 hPa 0,0 mm 0,0 km/h (0 Bft) O-SO 247 0 min 0 W/m 12,1 C 21,5 C 3,2 km/h (1 Bft)
16/07/2012 13:40 21,8 C 56 % 1028,6 hPa 0,0 mm 2,2 km/h (1 Bft) SO 225 0 min 0 W/m 12,6 C 21,8 C 4,0 km/h (1 Bft)
16/07/2012 13:50 21,8 C 55 % 1028,6 hPa 0,0 mm 3,6 km/h (1 Bft) S-SO 202 0 min 0 W/m 12,4 C 21,8 C 4,7 km/h (1 Bft)
16/07/2012 14:00 21,7 C 56 % 1028,6 hPa 0,0 mm 5,8 km/h (2 Bft) O-NO 292 0 min 0 W/m 12,5 C 21,7 C 7,9 km/h (2 Bft)
16/07/2012 14:10 21,8 C 56 % 1028,6 hPa 0,0 mm 5,4 km/h (2 Bft) SO 225 0 min 0 W/m 12,6 C 21,8 C 5,4 km/h (2 Bft)
16/07/2012 14:20 22,0 C 54 % 1028,5 hPa 0,0 mm 4,7 km/h (1 Bft) O-NO 292 0 min 0 W/m 12,3 C 22,0 C 8,3 km/h (2 Bft)
16/07/2012 14:30 22,1 C 53 % 1028,6 hPa 0,0 mm 5,0 km/h (1 Bft) SO 225 0 min 0 W/m 12,1 C 22,1 C 5,0 km/h (1 Bft)
16/07/2012 14:40 22,1 C 54 % 1028,4 hPa 0,0 mm 3,2 km/h (1 Bft) O 270 0 min 0 W/m 12,3 C 22,1 C 4,0 km/h (1 Bft)
16/07/2012 14:50 22,1 C 54 % 1028,3 hPa 0,0 mm 1,8 km/h (1 Bft) S 180 0 min 0 W/m 12,3 C 22,1 C 4,3 km/h (1 Bft)
16/07/2012 15:00 22,2 C 54 % 1028,3 hPa 0,0 mm 1,4 km/h (1 Bft) O-SO 247 0 min 0 W/m 12,4 C 22,2 C 2,9 km/h (1 Bft)
16/07/2012 15:10 22,5 C 53 % 1028,4 hPa 0,0 mm 5,4 km/h (2 Bft) NO 315 0 min 0 W/m 12,4 C 22,5 C 8,6 km/h (2 Bft)
16/07/2012 15:20 22,6 C 55 % 1028,3 hPa 0,0 mm 0,7 km/h (0 Bft) S 180 0 min 0 W/m 13,1 C 22,6 C 7,2 km/h (2 Bft)
16/07/2012 15:30 22,9 C 54 % 1028,1 hPa 0,0 mm 0,0 km/h (0 Bft) S-SO 202 0 min 0 W/m 13,1 C 22,9 C 4,0 km/h (1 Bft)
16/07/2012 15:40 23,0 C 53 % 1028,0 hPa 0,0 mm 0,7 km/h (0 Bft) S 180 0 min 0 W/m 12,9 C 23,0 C 4,0 km/h (1 Bft)
16/07/2012 15:50 23,2 C 53 % 1027,9 hPa 0,0 mm 1,1 km/h (1 Bft) SO 225 0 min 0 W/m 13,1 C 23,2 C 4,3 km/h (1 Bft)
16/07/2012 16:00 23,2 C 51 % 1028,0 hPa 0,0 mm 0,0 km/h (0 Bft) O 270 0 min 0 W/m 12,5 C 23,2 C 2,9 km/h (1 Bft)
16/07/2012 16:10 23,0 C 54 % 1028,0 hPa 0,0 mm 0,4 km/h (0 Bft) O 270 0 min 0 W/m 13,2 C 23,0 C 4,0 km/h (1 Bft)
16/07/2012 16:20 23,1 C 52 % 1027,9 hPa 0,0 mm 3,6 km/h (1 Bft) S-SO 202 0 min 0 W/m 12,7 C 23,1 C 7,9 km/h (2 Bft)
16/07/2012 16:30 23,2 C 53 % 1027,8 hPa 0,0 mm 5,4 km/h (2 Bft) O-SO 247 0 min 0 W/m 13,1 C 23,2 C 5,4 km/h (2 Bft)
16/07/2012 16:40 23,2 C 52 % 1027,8 hPa 0,0 mm 5,4 km/h (2 Bft) SO 225 0 min 0 W/m 12,8 C 23,2 C 8,6 km/h (2 Bft)
16/07/2012 16:50 23,1 C 51 % 1027,8 hPa 0,0 mm 3,2 km/h (1 Bft) S 180 0 min 0 W/m 12,4 C 23,1 C 4,0 km/h (1 Bft)
16/07/2012 17:00 23,2 C 53 % 1027,8 hPa 0,0 mm 1,4 km/h (1 Bft) O-SO 247 0 min 0 W/m 13,1 C 23,2 C 4,0 km/h (1 Bft)
16/07/2012 17:10 23,1 C 53 % 1027,8 hPa 0,0 mm 4,3 km/h (1 Bft) S 180 0 min 0 W/m 13,0 C 23,1 C 11,5 km/h (2 Bft)
16/07/2012 17:20 23,2 C 52 % 1027,9 hPa 0,0 mm 4,3 km/h (1 Bft) S-SO 202 0 min 0 W/m 12,8 C 23,2 C 4,3 km/h (1 Bft)
16/07/2012 17:30 23,3 C 53 % 1027,8 hPa 0,0 mm 0,7 km/h (0 Bft) O-SO 247 0 min 0 W/m 13,2 C 23,3 C 3,6 km/h (1 Bft)
16/07/2012 17:40 23,3 C 53 % 1027,8 hPa 0,0 mm 2,9 km/h (1 Bft) SO 225 0 min 0 W/m 13,2 C 23,3 C 6,8 km/h (2 Bft)
16/07/2012 17:50 23,4 C 53 % 1027,7 hPa 0,0 mm 7,2 km/h (2 Bft) O-SO 247 0 min 0 W/m 13,3 C 23,4 C 13,0 km/h (3 Bft)
16/07/2012 18:00 23,4 C 53 % 1027,5 hPa 0,0 mm 1,1 km/h (1 Bft) O-SO 247 0 min 0 W/m 13,3 C 23,4 C 1,1 km/h (1 Bft)
16/07/2012 18:10 23,0 C 54 % 1027,5 hPa 0,0 mm 0,0 km/h (0 Bft) O-SO 247 0 min 0 W/m 13,2 C 23,0 C 0,0 km/h (0 Bft)
16/07/2012 18:20 23,3 C 54 % 1027,5 hPa 0,0 mm 4,0 km/h (1 Bft) O 270 0 min 0 W/m 13,5 C 23,3 C 7,2 km/h (2 Bft)
16/07/2012 18:30 23,5 C 53 % 1027,6 hPa 0,0 mm 2,5 km/h (1 Bft) S-SO 202 0 min 0 W/m 13,4 C 23,5 C 7,6 km/h (2 Bft)
16/07/2012 18:40 23,4 C 53 % 1027,4 hPa 0,0 mm 2,5 km/h (1 Bft) S 180 0 min 0 W/m 13,3 C 23,4 C 6,8 km/h (2 Bft)
16/07/2012 18:50 23,4 C 52 % 1027,4 hPa 0,0 mm 4,3 km/h (1 Bft) O-SO 247 0 min 0 W/m 13,0 C 23,4 C 12,2 km/h (2 Bft)
16/07/2012 19:00 23,3 C 53 % 1027,4 hPa 0,0 mm 3,2 km/h (1 Bft) O 270 0 min 0 W/m 13,2 C 23,3 C 4,0 km/h (1 Bft)
16/07/2012 19:10 23,1 C 53 % 1027,3 hPa 0,0 mm 1,4 km/h (1 Bft) S-SO 202 0 min 0 W/m 13,0 C 23,1 C 3,6 km/h (1 Bft)
16/07/2012 19:20 22,9 C 54 % 1027,3 hPa 0,0 mm 1,8 km/h (1 Bft) S-SO 202 0 min 0 W/m 13,1 C 22,9 C 3,6 km/h (1 Bft)
16/07/2012 19:30 22,9 C 53 % 1027,3 hPa 0,0 mm 1,1 km/h (1 Bft) SO 225 0 min 0 W/m 12,8 C 22,9 C 1,1 km/h (1 Bft)
16/07/2012 19:40 22,9 C 54 % 1027,2 hPa 0,0 mm 3,2 km/h (1 Bft) O 270 0 min 0 W/m 13,1 C 22,9 C 6,5 km/h (2 Bft)
16/07/2012 19:50 23,1 C 54 % 1027,3 hPa 0,0 mm 0,7 km/h (0 Bft) SO 225 0 min 0 W/m 13,3 C 23,1 C 3,6 km/h (1 Bft)
16/07/2012 20:00 23,1 C 54 % 1027,3 hPa 0,0 mm 0,0 km/h (0 Bft) O-NO 292 0 min 0 W/m 13,3 C 23,1 C 0,0 km/h (0 Bft)
16/07/2012 20:10 22,9 C 54 % 1027,2 hPa 0,0 mm 2,2 km/h (1 Bft) S-SO 202 0 min 0 W/m 13,1 C 22,9 C 6,5 km/h (2 Bft)
16/07/2012 20:20 22,4 C 55 % 1027,2 hPa 0,0 mm 1,1 km/h (1 Bft) O-SO 247 0 min 0 W/m 12,9 C 22,4 C 4,3 km/h (1 Bft)
16/07/2012 20:30 21,8 C 56 % 1027,2 hPa 0,0 mm 0,4 km/h (0 Bft) S-SO 202 0 min 0 W/m 12,6 C 21,8 C 4,3 km/h (1 Bft)
16/07/2012 20:40 21,3 C 57 % 1027,2 hPa 0,0 mm 0,0 km/h (0 Bft) O 270 0 min 0 W/m 12,4 C 21,3 C 0,0 km/h (0 Bft)
16/07/2012 20:50 20,8 C 58 % 1027,2 hPa 0,0 mm 0,0 km/h (0 Bft) O-SO 247 0 min 0 W/m 12,2 C 20,8 C 0,0 km/h (0 Bft)
16/07/2012 21:00 20,4 C 60 % 1027,2 hPa 0,0 mm 0,0 km/h (0 Bft) O-SO 247 0 min 0 W/m 12,4 C 20,4 C 0,0 km/h (0 Bft)
16/07/2012 21:10 20,1 C 61 % 1027,3 hPa 0,0 mm 0,4 km/h (0 Bft) O 270 0 min 0 W/m 12,3 C 20,1 C 0,4 km/h (0 Bft)
16/07/2012 21:20 19,7 C 62 % 1027,4 hPa 0,0 mm 0,0 km/h (0 Bft) O 270 0 min 0 W/m 12,2 C 19,7 C 0,0 km/h (0 Bft)
16/07/2012 21:30 19,3 C 63 % 1027,4 hPa 0,0 mm 0,0 km/h (0 Bft) O-SO 247 0 min 0 W/m 12,1 C 19,3 C 0,0 km/h (0 Bft)
16/07/2012 21:40 18,9 C 64 % 1027,4 hPa 0,0 mm 0,0 km/h (0 Bft) O-NO 292 0 min 0 W/m 11,9 C 18,9 C 0,0 km/h (0 Bft)
16/07/2012 21:50 18,5 C 65 % 1027,5 hPa 0,0 mm 0,0 km/h (0 Bft) O 270 0 min 0 W/m 11,8 C 18,5 C 0,0 km/h (0 Bft)
_ Min-Heure 06:40 16:50 00:00 - 21:50 - - - - 06:40 06:40 21:50
Minimum _ 7,8 C 51 % 1025,2 hPa - 0,0 km/h (0 Bft) - - - - 6,4 C 7,8 C 0,0 km/h (0 Bft)
_ Max-Heure 18:30 08:20 13:10 21:50 17:50 - - 21:50 21:50 18:20 18:30 17:50
Maximum _ 23,5 C 93 % 1028,9 hPa 0,0 mm 7,2 km/h
O-SO (2 Bft)
- - 0 min 0 W/m 13,5 C 23,5 C 13,0 km/h
O-SO (3 Bft)
Moyenne _ 16,5 C 71 % 1027,4 hPa #0,0 mm 1,3 km/h (1 Bft) S-SO - #0 min. 0 W/m 10,8 C 16,5 C 2,9 km/h (1 Bft)
Saint Bonnet de Bellac- Haute Vienne - France